C/2014 A5 ( PanSTARRS )

Japanese version
Home page
Updated on June 11, 2016

---------------------------------------------------------------------

* Profile

Discovery Date January 4, 2014
Magnitude 21.4 mag
Discoverer Pan-STARRS 1 telescope (Haleakala)

* Pictures

* Orbital Elements

Epoch 2014 Aug. 11.0 TT = JDT 2456880.5
T 2014 Aug. 13.61274 TT                                 MPCW
q   4.8003238            (2000.0)            P               Q
z  +0.0080643      Peri.  182.59276     -0.67284780     -0.61894216
 +/-0.0000000      Node   310.10273     +0.68791191     -0.32199113
e   0.9612890      Incl.   31.98842     +0.27212689     -0.71640234
From 36 observations 2014 Jan. 4-2015 Mar. 23, mean residual 0".4.

* Magnitudes Graph

        m1 = 10.0 + 5 log d + 10.0 log r

---------------------------------------------------------------------

The orbital elements are published on M.P.E.C. 2015-G03.
The magnitudes graphs are made with Comet for Windows.

---------------------------------------------------------------------

Copyright(C) Seiichi Yoshida (comet@aerith.net). All rights reserved.